7 * 24
多渠道服务支持
STARLINK-5298是美国SpaceX公司星链星座中的一颗卫星,于2023年1月19日发射升空。作为星链低轨互联网星座的组成部分,它运行在近地轨道,负责为全球尤其是地面网络覆盖缺失的偏远地区提供高速低延迟的宽带互联网服务,目前服务覆盖地面、海事、航空等多场景,助力实现全球泛在互联。
美国
(US)
| 数据来源 | 国际轨道数据 |
| 星历时间: | 2026-09-12T11:10:06+0800 5小时前 查看轨道信息 |
| 半长轴: | 6950.192km |
| 偏心率: | 0.0003701 |
| 轨道倾角: | 69.998° |
| 近地点辐角 | 268.745° |
| 升交点赤经 | 294.349° |
| 平近点角 | 91.329° |
| 近地点: | 569.482km |
| 远地点: | 574.628km |
| 周期: | 96.107分钟 |
| 每日圈数: | 14.983306 |
| 事件ID | 空间交会对象 | 最接近时刻(TCA) | 交会距离 | 交会风险概率(CRP) | 交会风险指数(CRI) | 操作 |
|---|---|---|---|---|---|---|
| CDM_260912-182104-435305-528121 |
FORMOSAT7-6/COSMIC2-6
(44353)
STARLINK-5298
(55281) | 2026-09-12T 18:21:51+0000 |
1.850 km
极远距离 | 2.919246E-6 低风险 | 0.44 |